Stations météo

réclame
Mon MeteoGroup
Deelen, Pays-Bas (6275): Température de l'air & dewpoint: 09.12.2019 23:00:00 - 15.12.2019 23:00:00 (CET)Deelen, Pays-Bas (6275): Température de l'air 5cm: 09.12.2019 23:00:00 - 15.12.2019 23:00:00 (CET)Deelen, Pays-Bas (6275): Vitesse du vent & gusts: 09.12.2019 23:00:00 - 15.12.2019 23:00:00 (CET)Deelen, Pays-Bas (6275): Direction du vent: 09.12.2019 23:00:00 - 15.12.2019 23:00:00 (CET)Deelen, Pays-Bas (6275): reduced air pressure: 09.12.2019 23:00:00 - 15.12.2019 23:00:00 (CET)Deelen, Pays-Bas (6275): visibility: 09.12.2019 23:00:00 - 15.12.2019 23:00:00 (CET)Deelen, Pays-Bas (6275): Quantités de précipitations: 09.12.2019 23:00:00 - 15.12.2019 23:00:00 (CET)
Date & Time tt [°C] td [°C] tt 5cm [°C] ff [km/h] ff [knt] fx [km/h] fx [knt] dd ppp [hPa] vv [km] rr [mm]
15.12.2019 23:00:00 6,0 2,0 4,5 18 10 - - S 1005,6 10 -
15.12.2019 22:00:00 5,8 2,1 4,8 22 12 32 18 SSW 1005,4 10 0,0
15.12.2019 21:00:00 6,0 2,3 4,9 21 11 32 18 SSW 1005,0 10 0,0
15.12.2019 20:00:00 6,2 3,0 5,2 26 14 43 23 SSW 1004,2 10 0,0
15.12.2019 19:00:00 6,3 3,7 5,4 26 14 43 23 SSW 1003,4 10 0,0
15.12.2019 18:00:00 6,7 3,9 5,7 24 13 43 23 SSW 1002,6 10 0,0
15.12.2019 17:00:00 7,3 4,4 6,4 26 14 54 29 SSW 1001,7 10 0,4
15.12.2019 16:00:00 8,1 4,0 7,5 31 17 50 27 SSW 1000,9 10 0,0
15.12.2019 15:00:00 8,5 4,2 8,1 31 17 54 29 SW 1000,1 10 0,0
15.12.2019 14:00:00 8,2 4,4 7,6 29 16 47 25 SW 999,3 10 0,1
15.12.2019 13:00:00 7,9 3,1 7,6 31 17 50 27 SW 998,9 10 0,0
15.12.2019 12:00:00 8,0 2,3 7,7 29 16 50 27 SW 998,2 10 0,0
15.12.2019 11:00:00 7,2 2,1 6,8 31 17 61 33 SW 997,3 10 0,0
15.12.2019 10:00:00 7,0 2,3 6,4 31 17 50 27 SW 996,2 10 0,0
15.12.2019 09:00:00 7,0 3,9 6,1 28 15 43 23 WSW 994,5 10 0,0
15.12.2019 08:00:00 7,6 4,9 7,1 34 18 50 27 WSW 992,8 10 0,0
15.12.2019 07:00:00 8,4 6,3 7,9 31 17 50 27 SW 990,8 10 0,0
15.12.2019 06:00:00 8,1 7,3 7,4 28 15 47 25 SSW 989,4 10 1,2
15.12.2019 05:00:00 6,7 6,4 6,4 24 13 47 25 S 989,7 7 0,8
15.12.2019 04:00:00 6,9 4,5 6,4 28 15 47 25 S 990,7 10 0,0
15.12.2019 03:00:00 6,4 3,5 5,4 28 15 43 23 S 991,8 10 0,0
15.12.2019 02:00:00 5,1 3,0 4,5 21 11 32 18 SSE 993,6 10 0,0
15.12.2019 01:00:00 4,8 2,5 3,9 21 11 32 18 S 995,2 10 0,0
15.12.2019 00:00:00 4,1 1,4 3,3 16 9 22 12 S 996,3 10 0,0
14.12.2019 23:00:00 3,7 0,9 2,6 15 8 29 16 S 997,2 10 0,0
14.12.2019 22:00:00 4,0 0,8 2,7 16 9 25 14 SSW 997,2 10 0,0
14.12.2019 21:00:00 3,5 0,5 2,3 16 9 29 16 SW 996,9 10 0,0
14.12.2019 20:00:00 4,1 1,1 3,2 16 9 61 33 WSW 996,1 10 0,1
14.12.2019 19:00:00 4,6 3,2 3,8 16 9 36 19 WSW 994,7 10 0,1
14.12.2019 18:00:00 4,8 3,7 4,2 24 13 54 29 W 993,5 10 0,8
14.12.2019 17:00:00 6,1 4,5 5,7 31 17 58 31 WSW 991,1 10 1,0
14.12.2019 16:00:00 5,9 4,5 5,3 28 15 40 21 S 989,3 10 1,2
14.12.2019 15:00:00 5,6 4,0 5,3 24 13 50 27 SSW 990,3 4,6 0,6
14.12.2019 14:00:00 7,1 2,7 6,8 28 15 50 27 SW 990,3 10 0,0
14.12.2019 13:00:00 7,3 2,4 6,7 28 15 50 27 WSW 989,9 10 0,0
14.12.2019 12:00:00 7,0 2,5 6,9 29 16 58 31 WSW 989,0 10 0,0
14.12.2019 11:00:00 6,5 3,5 5,9 24 13 40 21 WSW 988,0 10 0,4
14.12.2019 10:00:00 5,9 4,6 5,8 22 12 43 23 WSW 986,6 10 0,2
14.12.2019 09:00:00 5,4 4,2 4,7 24 13 40 21 WSW 985,4 10 0,0
14.12.2019 08:00:00 4,6 3,9 3,7 22 12 32 18 WSW 984,0 10 0,0
14.12.2019 07:00:00 4,4 4,1 4,1 13 7 22 12 WSW 982,6 10 0,4
14.12.2019 06:00:00 4,4 4,3 4,2 8 4 14 8 SW 981,7 6 1,5
14.12.2019 05:00:00 4,5 4,1 4,3 8 4 22 12 SW 981,2 7 2,3
14.12.2019 04:00:00 5,0 3,7 4,6 26 14 40 21 SSW 981,5 10 0,2
14.12.2019 03:00:00 5,1 3,2 4,7 22 12 36 19 SSW 981,8 10 0,0
14.12.2019 02:00:00 5,2 3,2 4,7 24 13 36 19 SSW 982,1 10 0,0
14.12.2019 01:00:00 5,7 3,3 5,2 26 14 40 21 SSW 982,6 10 0,0
14.12.2019 00:00:00 5,7 3,5 5,0 22 12 36 19 SSW 982,7 10 0,1
13.12.2019 23:00:00 5,5 4,6 5,1 21 11 32 18 SSW 983,5 10 0,2
13.12.2019 22:00:00 5,4 4,7 4,7 16 9 25 14 SSW 983,5 10 0,0
13.12.2019 21:00:00 5,8 4,9 5,5 16 9 29 16 SW 983,6 10 0,0
13.12.2019 20:00:00 5,5 5,3 5,2 13 7 22 12 WSW 983,3 9 0,3
13.12.2019 19:00:00 4,8 4,7 4,2 11 6 18 10 WSW 982,6 9 0,0
13.12.2019 18:00:00 4,3 4,3 4,1 9 5 14 8 SW 981,8 4,2 0,6
13.12.2019 17:00:00 4,0 3,9 4,0 8 4 14 8 W 981,2 4,2 0,0
13.12.2019 16:00:00 3,9 3,7 4,0 8 4 18 10 WNW 979,7 4,4 1,6
13.12.2019 15:00:00 4,0 3,8 4,0 9 5 14 8 WNW 978,4 5 1,0
13.12.2019 14:00:00 4,1 3,7 4,3 8 4 11 6 NNW 976,9 10 0,0
13.12.2019 13:00:00 3,9 3,6 4,2 8 4 11 6 ENE 975,6 7 0,1
13.12.2019 12:00:00 3,6 3,2 3,6 8 4 22 12 E 975,0 6 0,1
13.12.2019 11:00:00 3,4 2,9 3,4 15 8 25 14 ESE 974,4 10 0,2
13.12.2019 10:00:00 3,1 2,6 3,0 18 10 25 14 ESE 973,9 10 0,4
13.12.2019 09:00:00 2,8 2,2 2,6 18 10 29 16 ESE 973,6 7 0,3
13.12.2019 08:00:00 2,7 1,9 2,6 21 11 32 18 SE 973,5 10 0,3
13.12.2019 07:00:00 2,7 1,8 2,6 22 12 36 19 SE 973,7 10 0,0
13.12.2019 06:00:00 2,8 1,6 2,6 24 13 40 21 SE 974,3 10 0,0
13.12.2019 05:00:00 2,6 1,7 2,4 26 14 40 21 SSE 975,4 10 0,3
13.12.2019 04:00:00 2,7 1,8 2,6 24 13 43 23 SSE 976,8 10 0,8
13.12.2019 03:00:00 3,0 1,8 2,8 28 15 50 27 SSE 977,8 10 0,8
13.12.2019 02:00:00 3,4 1,7 3,1 28 15 50 27 SSE 979,1 10 0,2
13.12.2019 01:00:00 3,5 1,6 3,2 29 16 50 27 SSE 981,0 10 0,1
13.12.2019 00:00:00 4,0 0,3 3,6 31 17 47 25 SSE 982,7 10 0,0
12.12.2019 23:00:00 4,3 0,4 3,9 31 17 50 27 SE 984,4 10 0,0
12.12.2019 22:00:00 4,2 0,3 3,7 28 15 43 23 SSE 986,3 10 0,0
12.12.2019 21:00:00 4,1 0,2 3,8 26 14 43 23 SSE 988,1 10 0,0
12.12.2019 20:00:00 4,2 0,0 3,7 28 15 43 23 SSE 989,7 10 0,0
12.12.2019 19:00:00 4,1 0,2 3,8 22 12 40 21 SSE 991,2 10 0,0
12.12.2019 18:00:00 3,8 0,6 3,2 22 12 36 19 SSE 992,6 10 0,0
12.12.2019 17:00:00 4,4 0,8 3,5 22 12 43 23 SSE 994,0 10 0,0
12.12.2019 16:00:00 4,8 1,9 4,5 21 11 36 19 SSE 995,4 10 0,0
12.12.2019 15:00:00 5,0 2,5 4,9 21 11 36 19 S 996,6 10 0,0
12.12.2019 14:00:00 4,7 2,6 4,9 21 11 40 21 S 997,8 10 0,0
12.12.2019 13:00:00 4,3 2,4 4,5 21 11 36 19 S 999,1 10 0,0
12.12.2019 12:00:00 4,4 2,7 4,5 18 10 29 16 SSW 1000,0 10 0,0
12.12.2019 11:00:00 3,7 2,8 3,9 21 11 29 16 SSW 1000,9 8 0,0
12.12.2019 10:00:00 3,4 3,0 3,5 18 10 29 16 SSW 1001,3 5 0,0
12.12.2019 09:00:00 3,6 3,1 3,4 16 9 25 14 SW 1001,3 7 0,0
12.12.2019 08:00:00 4,1 3,4 3,9 16 9 29 16 SW 1001,4 8 0,0
12.12.2019 07:00:00 4,7 3,9 4,5 15 8 22 12 SW 1001,2 10 0,0
12.12.2019 06:00:00 4,7 4,0 4,5 16 9 29 16 SW 1001,2 10 0,0
12.12.2019 05:00:00 4,8 3,9 4,6 15 8 25 14 SSW 1001,4 10 0,0
12.12.2019 04:00:00 4,7 4,0 4,5 16 9 25 14 SSW 1001,5 10 0,0
12.12.2019 03:00:00 4,7 3,9 4,6 16 9 29 16 SSW 1001,7 10 0,0
12.12.2019 02:00:00 5,0 4,1 4,8 15 8 25 14 S 1001,9 10 0,0
12.12.2019 01:00:00 4,9 4,2 4,7 18 10 32 18 SSW 1002,2 8 0,0
12.12.2019 00:00:00 4,8 4,4 4,6 16 9 25 14 S 1002,7 6 0,0
11.12.2019 23:00:00 5,2 4,7 5,1 15 8 25 14 SSW 1003,1 6 0,0
11.12.2019 22:00:00 5,2 4,8 5,1 18 10 25 14 SSW 1003,4 4,8 0,0
11.12.2019 21:00:00 5,2 4,8 5,1 15 8 25 14 S 1003,7 5 0,0
11.12.2019 20:00:00 5,0 4,5 4,8 11 6 25 14 S 1004,0 5 0,0
11.12.2019 19:00:00 5,2 4,6 4,8 15 8 22 12 SSW 1004,5 6 0,0
11.12.2019 18:00:00 5,5 4,9 5,2 13 7 18 10 S 1004,5 7 0,0
11.12.2019 17:00:00 4,9 4,6 4,2 11 6 14 8 S 1004,6 5 0,0
11.12.2019 16:00:00 5,9 5,4 5,7 11 6 18 10 SSW 1004,7 7 0,0
11.12.2019 15:00:00 6,2 5,7 6,2 11 6 14 8 SSW 1005,1 5 0,0
11.12.2019 14:00:00 6,1 5,7 6,2 13 7 18 10 SSW 1005,6 6 0,0
11.12.2019 13:00:00 6,2 5,9 6,3 11 6 22 12 SW 1006,6 6 0,0
11.12.2019 12:00:00 6,1 5,8 6,1 16 9 29 16 SSW 1007,1 8 0,0
11.12.2019 11:00:00 6,1 6,0 6,2 15 8 25 14 SSW 1007,9 7 0,0
11.12.2019 10:00:00 6,1 5,9 6,0 15 8 25 14 SSW 1008,1 7 0,0
11.12.2019 09:00:00 6,1 5,9 5,9 18 10 25 14 SSW 1008,3 10 0,2
11.12.2019 08:00:00 6,0 5,8 5,9 18 10 29 16 SSW 1008,4 8 0,6
11.12.2019 07:00:00 6,0 5,7 5,8 18 10 29 16 SSW 1008,6 10 0,5
11.12.2019 06:00:00 5,9 5,5 5,6 22 12 32 18 SSW 1008,7 10 0,3
11.12.2019 05:00:00 5,7 5,3 5,5 24 13 36 19 SSW 1008,9 10 1,5
11.12.2019 04:00:00 6,0 5,1 5,7 24 13 47 25 SSW 1009,2 10 0,4
11.12.2019 03:00:00 6,0 4,4 5,6 28 15 43 23 S 1009,1 10 0,1
11.12.2019 02:00:00 5,5 3,7 5,1 31 17 50 27 S 1009,6 6 0,3
11.12.2019 01:00:00 6,4 1,6 5,9 34 18 50 27 S 1009,9 10 0,0
11.12.2019 00:00:00 6,8 0,8 6,4 29 16 50 27 S 1010,6 10 0,0
10.12.2019 23:00:00 6,4 0,5 5,9 31 17 54 29 S 1011,1 10 0,0
10.12.2019 22:00:00 6,0 0,4 5,7 35 19 50 27 S 1011,8 10 0,0
10.12.2019 21:00:00 5,6 0,5 5,1 31 17 58 31 S 1012,9 10 0,0
10.12.2019 20:00:00 5,1 0,8 4,7 29 16 50 27 S 1014,2 10 0,0
10.12.2019 19:00:00 4,9 0,9 4,6 29 16 47 25 S 1015,3 10 0,0
10.12.2019 18:00:00 5,0 0,9 4,6 29 16 47 25 S 1016,7 10 0,0
10.12.2019 17:00:00 5,1 1,0 4,6 26 14 43 23 S 1017,6 10 0,0
10.12.2019 16:00:00 5,1 1,2 4,8 26 14 43 23 S 1018,7 10 0,0
10.12.2019 15:00:00 5,3 1,4 5,0 24 13 40 21 S 1020,1 10 0,0
10.12.2019 14:00:00 5,8 1,4 5,9 24 13 40 21 S 1021,0 10 0,0
10.12.2019 13:00:00 5,7 1,7 5,9 26 14 40 21 S 1022,2 10 0,0
10.12.2019 12:00:00 5,2 1,5 5,1 24 13 36 19 SSW 1023,4 10 0,0
10.12.2019 11:00:00 4,1 2,0 3,6 15 8 22 12 SSW 1024,3 10 0,0
10.12.2019 10:00:00 2,4 1,7 1,6 15 8 22 12 SSW 1024,5 10 0,0
10.12.2019 09:00:00 1,3 0,9 0,0 13 7 14 8 SSW 1024,5 10 0,0
10.12.2019 08:00:00 0,7 0,2 -1,4 4 2 7 4 SSE 1024,2 10 0,0
10.12.2019 07:00:00 0,8 0,3 -0,6 8 4 7 4 SE 1023,9 10 0,0
10.12.2019 06:00:00 -0,1 -0,7 -1,5 2 1 7 4 - 1023,9 10 0,0
10.12.2019 05:00:00 1,1 0,1 -0,4 4 2 11 6 SE 1023,7 10 0,0
10.12.2019 04:00:00 2,2 0,7 0,6 8 4 14 8 W 1023,3 10 0,0
10.12.2019 03:00:00 0,7 -0,3 -1,7 8 4 14 8 - 1022,6 10 0,0
10.12.2019 02:00:00 0,6 -0,6 -1,4 5 3 14 8 W 1021,7 10 0,0
10.12.2019 01:00:00 2,3 0,5 1,0 9 5 18 10 W 1020,7 10 0,0
10.12.2019 00:00:00 1,7 0,2 -0,2 11 6 18 10 W 1019,9 10 0,0
09.12.2019 23:00:00 3,5 0,7 2,1 11 6 25 14 WNW 1018,8 10 0,0

tt = Température de l'air
td = dewpoint
tt 5cm = Température de l'air 5cm
ff = Vitesse du vent
fx = gusts
dd = Direction du vent
ppp = reduced air pressure
vv = visibility
rr = Quantités de précipitations

stations d'obs. à proximité